�������r�C�����j�^�v���󋵏��
Date,Time,5�C6���@���p�r�C��,����,����(m/s)
2022/04/21,00:00,3.8,��쐼,8.4
2022/04/21,00:10,3.9,��쐼,8.2
2022/04/21,00:20,3.9,��쐼,7.6
2022/04/21,00:30,4.0,��쐼,7.3
2022/04/21,00:40,4.0,��쐼,6.5
2022/04/21,00:50,3.8,��쐼,6.5
2022/04/21,01:00,3.8,��,6.5
2022/04/21,01:10,4.0,��,9.0
2022/04/21,01:20,4.1,��,9.4
2022/04/21,01:30,3.9,��쐼,8.8
2022/04/21,01:40,3.7,��,9.0
2022/04/21,01:50,3.9,��,9.4
2022/04/21,02:00,3.9,��,10.2
2022/04/21,02:10,3.9,��쐼,10.2
2022/04/21,02:20,4.1,��,9.4
2022/04/21,02:30,3.9,��,7.6
2022/04/21,02:40,4.0,��,8.0
2022/04/21,02:50,3.9,��,7.5
2022/04/21,03:00,4.0,��쐼,7.8
2022/04/21,03:10,3.9,��쐼,7.0
2022/04/21,03:20,3.9,��쐼,6.2
2022/04/21,03:30,3.9,��쐼,5.1
2022/04/21,03:40,3.8,��쐼,4.5
2022/04/21,03:50,3.9,��쐼,4.3
2022/04/21,04:00,3.8,��쐼,5.5
2022/04/21,04:10,3.9,��쐼,5.3
2022/04/21,04:20,3.9,��쐼,5.2
2022/04/21,04:30,3.9,��쐼,4.2
2022/04/21,04:40,4.1,��쐼,3.2
2022/04/21,04:50,3.9,��쐼,2.9
2022/04/21,05:00,3.9,��쐼,3.9
2022/04/21,05:10,3.9,��,4.9
2022/04/21,05:20,3.9,��쐼,4.5
2022/04/21,05:30,3.9,��쐼,5.2
2022/04/21,05:40,4.0,��,6.0
2022/04/21,05:50,3.9,��쐼,5.8
2022/04/21,06:00,4.0,��,5.1
2022/04/21,06:10,3.9,��쐼,5.7
2022/04/21,06:20,3.9,��쐼,6.9
2022/04/21,06:30,3.8,�쐼,5.0
2022/04/21,06:40,3.6,�쐼,3.6
2022/04/21,06:50,3.8,��쐼,2.3
2022/04/21,07:00,4.0,��,2.2
2022/04/21,07:10,4.0,��쐼,1.2
2022/04/21,07:20,3.9,��,2.0
2022/04/21,07:30,3.8,��쐼,2.3
2022/04/21,07:40,3.9,��쓌,1.2
2022/04/21,07:50,4.0,��쓌,1.7
2022/04/21,08:00,3.9,��쓌,1.9
2022/04/21,08:10,4.0,�쓌,1.9
2022/04/21,08:20,3.8,��쓌,2.5
2022/04/21,08:30,4.1,��쓌,3.1
2022/04/21,08:40,4.0,��쓌,3.6
2022/04/21,08:50,3.8,��쓌,4.5
2022/04/21,09:00,3.7,��쓌,6.9
2022/04/21,09:10,3.9,��쓌,7.6
2022/04/21,09:20,4.0,��쓌,8.0
2022/04/21,09:30,3.7,��,10.0
2022/04/21,09:40,3.7,��쓌,9.6
2022/04/21,09:50,3.9,��쓌,9.6
2022/04/21,10:00,3.8,��쓌,12.1
2022/04/21,10:10,3.9,��쓌,10.7
2022/04/21,10:20,3.9,��쓌,10.7
2022/04/21,10:30,3.9,��쓌,12.7
2022/04/21,10:40,4.0,-,-
2022/04/21,10:50,4.0,-,-
2022/04/21,11:00,3.7,-,-
2022/04/21,11:10,3.9,-,-
2022/04/21,11:20,3.8,-,-
2022/04/21,11:30,3.9,-,-
2022/04/21,11:40,3.8,-,-
2022/04/21,11:50,4.0,-,-
2022/04/21,12:00,3.9,-,-
2022/04/21,12:10,3.8,-,-
2022/04/21,12:20,3.8,-,-
2022/04/21,12:30,3.7,-,-
2022/04/21,12:40,3.9,-,-
2022/04/21,12:50,3.8,-,-
2022/04/21,13:00,4.1,-,-
2022/04/21,13:10,4.0,-,-
2022/04/21,13:20,4.2,-,-
2022/04/21,13:30,3.9,-,-
2022/04/21,13:40,3.9,-,-
2022/04/21,13:50,3.8,-,-
2022/04/21,14:00,3.8,��쓌,13.5
2022/04/21,14:10,3.9,��쓌,14.6
2022/04/21,14:20,3.9,��쓌,12.2
2022/04/21,14:30,3.8,��쓌,11.9
2022/04/21,14:40,3.8,��쓌,11.6
2022/04/21,14:50,3.8,��쓌,13.0
2022/04/21,15:00,3.8,��쓌,11.3
2022/04/21,15:10,3.8,��,11.0
2022/04/21,15:20,3.8,��쓌,13.5
2022/04/21,15:30,3.9,��,10.9
2022/04/21,15:40,3.8,��,11.4
2022/04/21,15:50,3.8,��,9.9
2022/04/21,16:00,4.0,��쓌,12.4
2022/04/21,16:10,4.0,��쓌,12.7
2022/04/21,16:20,3.9,��,13.2
2022/04/21,16:30,3.9,��쓌,11.1
2022/04/21,16:40,4.1,��,11.1
2022/04/21,16:50,3.9,��,12.7
2022/04/21,17:00,4.0,��,10.7
2022/04/21,17:10,3.9,��,8.7
2022/04/21,17:20,3.7,��,8.6
2022/04/21,17:30,3.8,��,8.9
2022/04/21,17:40,3.9,��,9.8
2022/04/21,17:50,3.9,��,8.3
2022/04/21,18:00,3.9,��쓌,11.6
2022/04/21,18:10,4.0,��쓌,12.4
2022/04/21,18:20,3.9,��쓌,11.8
2022/04/21,18:30,4.1,��,9.9
2022/04/21,18:40,3.9,��,8.0
2022/04/21,18:50,4.0,��쐼,7.9
2022/04/21,19:00,4.0,��,7.5
2022/04/21,19:10,4.0,��,7.1
2022/04/21,19:20,4.0,��,7.3
2022/04/21,19:30,3.8,��,6.6
2022/04/21,19:40,3.8,��,7.2
2022/04/21,19:50,3.9,��,7.3
2022/04/21,20:00,3.8,��,8.7
2022/04/21,20:10,3.8,��,9.2
2022/04/21,20:20,3.9,��,6.9
2022/04/21,20:30,3.9,��,6.9
2022/04/21,20:40,3.9,��,8.5
2022/04/21,20:50,3.8,��,8.1
2022/04/21,21:00,3.9,��,8.2
2022/04/21,21:10,3.9,��,7.6
2022/04/21,21:20,3.7,��,8.2
2022/04/21,21:30,3.8,��,10.9
2022/04/21,21:40,3.8,��,11.6
2022/04/21,21:50,4.0,��,10.9
2022/04/21,22:00,4.0,��,11.0
2022/04/21,22:10,3.8,��,7.7
2022/04/21,22:20,3.8,��,8.4
2022/04/21,22:30,3.8,��,7.1
2022/04/21,22:40,3.9,��,6.3
2022/04/21,22:50,3.9,��쐼,7.0
2022/04/21,23:00,4.1,��쐼,7.9
2022/04/21,23:10,3.8,��쐼,6.3
2022/04/21,23:20,3.8,��쐼,5.1
2022/04/21,23:30,4.0,�쐼,4.1
2022/04/21,23:40,3.7,�쐼,4.3
2022/04/21,23:50,3.9,�쐼,4.0
